Find Starlink 31460

NORAD ID: 59008 Int'l Des: 2024-036 Owner: SPXS Country: US Constellation: starlink operational
LEOCIRCULAR

現在のビュー

3D地球を読み込み中...

About Starlink 31460

Starlink 31460 (NORAD 59008) is a starlink constellation satellite (v2 mini) launched Feb 23, 2024 by SPXS of US. It operates in LEO, CIRCULAR orbit with a mass of 730.00 kg.

Starlink 31460について

説明を読み込み中...

次回通過

Passes for default location (London). Set your location on the main map for personalized predictions.

高度履歴

Loading altitude history...

軌道要素

1 59008U 24036L 26171.44516273 .00002931 00000-0 11109-3 0 9996
2 59008 53.1622 320.9779 0001280 85.5333 274.5814 15.30182980131056
Epoch: Jun 20, 2026 • Age: 13 hours

現在のステータス

高度 476.5 km
速度 7.63 km/s
衛星直下点 30.31°N, 154.15°W
打ち上げ日 Feb 23, 2024
運用期間 2.3 years
タイプ internet

技術仕様

分類 Payload
質量 730.00 kg
乾燥質量 700.00 kg
総質量 730.00 kg
長さ 0.30 m
直径 4.10 m
スパン 29.00 m
形状 Box + pan
製造者 SPXS
バスタイプ Starlink V2M
フェーズステータス In Orbit
所有者/国 SPXS/US

Most Searched